This is the latest recevied weather packets stored in our database for station/object HF3P-11. If no packets are shown the sender has not sent any weather packets the latest 10 day(s).
| Time | Temp. | Humidity | Pressure | Rain* | Wind** | Luminosity | Snow |
|---|---|---|---|---|---|---|---|
| 1777530598 | 10.56° C | 54% | 1024.3 hPa | 0 mm | - | - | - |
| 1777530305 | 9.44° C | 55% | 1024.3 hPa | 0 mm | - | - | - |
| 1777529998 | 8.89° C | 56% | 1024.2 hPa | 0 mm | - | - | - |
| 1777529706 | 8.33° C | 58% | 1024.3 hPa | 0 mm | - | - | - |
| 1777529398 | 7.78° C | 58% | 1024.1 hPa | 0 mm | - | - | - |
| 1777529105 | 7.22° C | 61% | 1024.2 hPa | 0 mm | - | - | - |
| 1777528798 | 7.22° C | 61% | 1024.1 hPa | 0 mm | - | - | - |
| 1777528505 | 6.67° C | 62% | 1024.1 hPa | 0 mm | - | - | - |
| 1777528199 | 6.11° C | 63% | 1024.3 hPa | 0 mm | - | - | - |
| 1777527905 | 5.56° C | 64% | 1024 hPa | 0 mm | - | - | - |
| 1777527605 | 5° C | 65% | 1024.2 hPa | 0 mm | - | - | - |
| 1777527299 | 4.44° C | 65% | 1024.2 hPa | 0 mm | - | - | - |
| 1777527006 | 4.44° C | 65% | 1024.2 hPa | 0 mm | - | - | - |
| 1777526698 | 4.44° C | 67% | 1024.2 hPa | 0 mm | - | - | - |
| 1777526405 | 3.89° C | 68% | 1024.2 hPa | 0 mm | - | - | - |
| 1777526105 | 3.89° C | 71% | 1024.2 hPa | 0 mm | - | - | - |
| 1777525799 | 2.78° C | 73% | 1024.2 hPa | 0 mm | - | - | - |
| 1777525504 | 1.11° C | 73% | 1024.2 hPa | 0 mm | - | - | - |
| 1777525199 | 1.11° C | 73% | 1024.3 hPa | 0 mm | - | - | - |
| 1777524905 | 1.11° C | 73% | 1024.2 hPa | 0 mm | - | - | - |
| 1777524599 | 0.56° C | 73% | 1024.3 hPa | 0 mm | - | - | - |
| 1777524305 | 0.56° C | 73% | 1024.3 hPa | 0 mm | - | - | - |
| 1777523998 | 0.56° C | 73% | 1024.2 hPa | 0 mm | - | - | - |
| 1777523705 | 0° C | 73% | 1024.2 hPa | 0 mm | - | - | - |
| 1777523398 | 0° C | 73% | 1024.1 hPa | 0 mm | - | - | - |
* Rain latest hour (hover to see other rain measurements)
** Current wind speed in m/s (hover to see current wind gust speed)